Theta_e
339 337 336 337 338 336 335 336 337 338 338 337 335 334 333 332 331 330 329 329 329 330 332 332 330 331 332 327 329 330 330 331 331 331 331 330 328 327 328 326 324 326 325
339 340 338 338 338 339 338 337 337 338 338 338 337 336 334 334 333 332 331 329 330 330 330 332 331 331 331 332 330 330 330 330 330 331 331 331 329 328 328 327 324 325 325
338 337 337 339 337 338 340 339 336 337 338 339 338 337 336 334 333 333 333 332 330 330 331 331 331 331 331 331 331 331 331 331 330 330 330 330 330 329 328 328 325 324 325
334 334 334 333 336 337 337 337 335 335 335 335 335 336 336 334 334 330 333 333 333 331 330 331 332 332 331 330 331 331 331 330 330 330 329 328 328 329 329 328 326 324 325
333 333 334 334 334 335 338 337 337 336 336 335 335 335 335 336 334 334 327 332 332 334 332 331 331 331 332 332 331 331 331 330 330 329 329 328 327 330 329 328 327 325 325
325 326 328 329 330 331 333 335 336 336 336 335 335 335 335 333 334 330 323 330 330 331 332 331 332 331 331 331 330 331 331 331 329 329 329 328 327 329 329 328 328 326 324
313 314 315 317 320 324 326 328 330 331 333 335 335 332 325 327 328 325 324 324 329 329 330 327 329 330 329 328 329 329 331 331 330 329 328 328 327 327 330 329 327 327 324
312 312 313 313 314 314 314 317 323 327 330 332 334 333 331 328 328 327 326 324 326 327 327 325 322 325 326 330 329 329 329 331 331 329 329 327 327 328 328 329 329 328 325
312 312 313 313 314 315 315 315 315 317 323 330 331 331 330 329 329 328 325 324 327 327 325 322 322 324 324 327 327 328 328 328 331 329 328 327 327 327 329 329 329 328 327
310 311 312 312 314 315 316 316 316 315 315 320 328 332 329 330 330 331 329 328 328 327 325 323 324 324 323 323 325 327 327 328 327 329 329 328 327 326 328 328 327 327 327
309 310 311 312 313 315 316 317 317 317 316 315 317 326 329 330 328 329 329 330 329 328 327 329 328 324 324 324 323 326 327 328 329 326 328 328 327 327 328 327 327 327 325
308 309 310 311 312 312 314 315 315 314 315 316 316 316 323 327 328 326 327 328 328 329 329 329 328 324 324 326 325 323 325 328 329 325 327 328 326 327 327 327 326 325 325
306 307 308 310 311 311 311 312 314 314 314 313 314 317 317 319 324 324 324 326 328 329 329 328 328 327 326 325 325 325 324 329 328 326 325 326 327 326 326 327 327 328 325
302 303 305 306 308 309 309 311 311 312 313 314 313 315 316 318 318 321 323 325 327 326 327 328 327 326 327 326 325 324 323 328 329 328 326 326 326 325 325 325 327 328 328
300 300 301 302 303 304 305 307 309 311 312 314 315 315 315 317 319 319 324 321 324 326 327 326 327 326 326 326 324 323 322 323 323 327 327 326 325 325 324 324 325 326 329
298 299 299 300 301 302 303 304 306 307 309 312 315 316 317 318 319 319 325 323 322 323 325 325 326 325 325 325 324 323 322 322 322 324 327 327 324 325 325 323 323 324 326
297 298 298 298 298 300 302 304 306 306 307 311 313 315 316 317 318 319 320 320 321 322 324 324 325 325 324 322 323 323 322 322 323 323 326 326 323 322 325 323 323 323 324
295 295 295 294 296 297 298 300 302 303 306 309 311 313 314 316 319 319 321 320 321 322 321 323 324 325 323 323 323 323 324 324 324 323 325 324 322 322 325 323 322 322 323
294 294 294 293 292 294 295 296 298 301 302 304 306 308 311 314 317 319 320 322 321 321 321 322 323 323 323 323 323 323 323 323 323 324 323 324 323 323 324 322 322 322 324
294 293 293 293 292 293 293 295 295 297 299 301 302 304 305 309 312 316 319 320 321 321 322 324 323 323 322 321 321 321 323 323 322 321 323 322 322 324 323 322 322 323 322
293 293 294 294 293 292 292 293 294 293 295 297 299 300 301 302 304 307 312 317 318 321 322 322 322 322 322 322 321 322 322 319 321 320 323 322 323 323 322 322 322 322 321
288 287 288 290 292 290 290 293 293 294 294 295 296 297 299 302 303 304 305 306 311 314 319 321 322 323 322 323 322 322 323 320 320 319 323 322 325 323 322 321 322 321 322
285 285 285 285 286 287 288 290 292 292 292 293 293 294 296 297 299 301 302 302 302 305 309 316 318 322 323 323 323 322 321 319 320 321 323 321 323 324 323 322 321 321 322
284 284 284 284 284 284 285 285 288 289 290 291 292 292 292 293 295 296 298 300 300 302 303 306 307 309 318 320 322 321 320 320 321 321 321 322 322 323 324 323 323 322 321
282 282 282 282 282 283 283 284 285 285 286 287 288 289 290 290 292 294 296 297 296 297 298 299 299 299 306 317 321 321 321 320 320 320 322 322 322 322 321 321 323 322 321
281 281 281 281 281 280 281 281 282 282 283 283 284 286 288 288 290 291 292 292 293 293 295 298 299 300 305 309 316 313 319 319 320 320 321 321 321 322 321 322 322 321 321
Wind_Speed
25 25 27 28 30 32 33 32 32 31 31 29 29 27 26 25 23 22 21 20 21 22 22 21 21 20 20 20 21 22 22 22 23 23 25 25 24 25 26 25 24 23 21
23 23 23 24 26 28 29 31 33 33 33 32 32 31 29 28 26 24 23 23 23 23 24 23 23 22 21 20 21 22 22 23 24 23 25 27 25 25 27 27 27 25 23
21 25 26 24 25 26 26 27 28 31 33 34 35 34 31 30 28 26 24 24 25 25 25 25 26 25 24 23 23 23 23 24 25 25 26 27 28 27 31 30 29 27 26
23 25 27 29 30 29 28 29 30 30 32 33 35 35 33 31 29 24 25 27 28 28 27 26 26 28 28 27 26 25 25 25 26 26 26 27 28 29 33 32 31 29 28
20 23 25 28 30 30 29 35 32 35 33 35 35 35 33 31 27 28 19 27 29 31 30 29 28 28 30 31 30 28 27 26 26 28 28 28 28 32 33 34 33 31 31
21 22 23 24 24 24 28 30 27 26 33 39 36 33 39 31 26 25 31 29 30 31 32 28 28 30 30 30 32 31 30 28 27 28 30 31 29 30 34 37 35 35 34
19 21 23 24 26 26 25 24 24 25 26 32 34 40 51 46 41 58 41 45 33 30 30 30 27 31 32 32 33 33 32 32 30 28 31 32 32 32 35 37 38 39 37
16 18 20 21 23 25 25 26 27 27 25 21 27 26 14 43 55 56 50 58 44 37 33 33 36 40 38 36 31 34 35 35 34 30 31 31 32 32 37 39 43 43 40
14 15 18 20 20 22 23 23 26 29 29 22 25 23 12 18 28 46 47 56 53 53 37 38 48 45 42 39 36 37 36 38 38 35 32 32 32 33 36 37 41 41 41
14 14 16 18 20 20 20 21 22 26 28 30 27 29 32 24 15 18 31 45 49 52 59 51 54 49 51 48 42 42 37 40 40 39 37 34 34 32 35 36 40 42 39
14 15 16 16 17 17 18 19 19 20 24 29 31 32 28 33 35 34 21 29 35 41 47 52 57 60 52 54 50 45 41 39 39 40 39 36 36 35 34 35 40 46 46
17 16 14 15 16 15 15 16 17 19 20 22 28 31 36 26 31 38 39 29 33 37 38 40 48 60 60 55 53 55 48 41 40 39 40 37 37 38 38 36 37 39 46
19 18 17 15 15 16 16 17 17 18 19 23 25 27 35 43 30 32 35 34 30 29 36 42 44 40 47 57 59 55 51 44 40 39 39 39 38 39 38 38 40 42 50
21 20 19 19 17 17 17 18 18 19 20 23 25 27 28 31 40 40 42 33 35 33 32 39 39 47 46 54 54 54 50 44 43 43 41 40 40 40 41 41 42 41 46
19 20 20 18 19 19 18 17 18 18 23 23 24 27 29 28 28 40 40 43 39 33 36 32 36 41 44 47 51 51 50 44 43 46 47 43 42 42 42 43 43 44 50
17 17 18 19 19 18 18 18 16 17 20 23 23 23 26 26 26 32 36 38 40 43 40 34 31 33 41 44 45 47 48 47 46 45 48 45 42 44 43 43 44 45 47
15 16 17 17 18 18 17 14 16 17 17 17 19 20 21 23 24 26 35 39 42 39 44 39 35 29 39 41 43 42 41 43 43 40 48 45 43 43 45 44 44 43 49
16 16 17 18 19 20 20 17 15 14 14 12 12 15 16 21 21 25 31 34 37 36 40 38 36 34 41 43 42 40 35 36 38 37 39 42 42 40 43 43 43 44 49
20 21 24 27 29 26 23 19 17 17 14 13 11 10 12 12 18 23 27 29 34 37 37 40 36 34 38 38 38 39 35 33 29 30 30 38 41 40 42 43 40 40 41
24 26 29 31 31 31 28 25 23 21 19 18 15 12 13 13 13 16 25 30 31 35 38 39 39 39 40 40 37 38 38 38 41 42 32 36 39 42 41 37 37 35 35
24 25 26 27 30 32 32 32 30 29 28 25 23 20 19 17 14 16 19 23 28 31 33 39 39 37 35 37 42 44 45 45 46 46 38 35 37 41 40 37 37 33 29
23 25 27 27 29 31 30 30 32 34 35 35 34 30 27 25 20 16 14 15 21 29 33 30 41 34 30 38 40 40 42 44 40 45 38 38 38 41 39 37 37 34 32
23 25 27 27 29 29 29 29 30 32 34 36 38 40 39 36 30 26 20 15 11 15 24 35 29 29 36 38 42 43 44 45 40 34 39 43 40 38 41 42 37 35 39
24 25 25 28 29 31 30 31 30 32 33 35 37 38 40 40 39 33 25 19 16 14 14 12 12 17 20 33 39 39 42 37 33 36 42 39 41 41 38 39 41 40 37
24 26 27 26 29 30 31 32 32 33 34 35 35 36 36 36 36 36 32 29 24 20 14 12 10 7 15 22 28 36 37 32 34 40 42 39 40 41 38 39 37 41 43
25 25 27 29 29 32 32 33 34 34 35 35 35 35 35 34 32 32 34 34 32 31 26 19 13 9 7 14 29 29 31 38 42 43 44 45 43 43 33 39 37 36 36
Wind_Direction
247 242 242 241 239 239 238 239 241 243 243 243 244 245 247 248 248 250 252 248 245 244 245 246 249 248 239 232 230 233 233 228 231 231 233 233 236 222 220 222 223 217 213
247 245 244 243 244 244 246 244 244 248 249 248 247 246 247 249 250 251 252 255 253 249 246 247 248 249 248 241 236 233 235 235 237 237 237 237 237 229 222 222 227 221 217
252 257 257 250 247 249 252 249 248 249 253 253 251 249 246 247 249 252 255 260 261 257 253 249 247 247 245 245 243 242 244 240 239 237 238 240 241 235 225 220 226 225 220
253 253 256 262 260 255 251 251 250 251 252 255 256 255 250 246 245 247 257 260 261 261 258 256 252 247 245 245 245 246 245 245 243 240 239 241 243 238 228 223 222 226 222
258 260 259 256 256 255 255 251 258 254 255 255 256 257 255 251 246 247 247 262 263 262 260 261 257 253 245 244 246 247 240 239 243 246 244 242 243 233 229 228 222 224 226
262 265 265 267 266 263 254 247 246 249 253 259 256 255 253 250 242 257 246 264 255 259 253 255 254 250 247 245 245 246 242 240 239 245 246 243 239 233 231 229 226 224 226
263 263 263 264 263 262 262 258 259 256 253 252 249 258 261 264 251 251 257 252 252 247 242 243 249 252 249 246 244 242 244 246 244 245 246 243 240 236 231 231 229 223 225
267 268 268 265 263 261 257 256 255 255 253 251 241 253 204 232 244 250 247 241 243 253 241 235 241 240 248 246 245 247 244 245 247 247 248 245 241 238 234 234 235 222 223
273 272 273 272 271 268 261 254 250 248 247 243 243 233 214 229 246 244 246 240 247 251 244 238 243 240 247 248 252 246 246 244 247 245 245 246 241 239 236 239 236 227 223
289 279 275 275 277 277 273 265 255 250 246 244 235 237 237 236 217 239 243 245 252 250 244 250 246 247 246 250 250 252 248 249 246 245 245 244 243 241 236 240 243 222 227
300 292 284 281 280 280 277 273 267 258 251 247 242 237 246 244 243 249 254 246 243 243 243 248 245 248 243 245 246 248 250 246 249 248 244 244 242 239 235 237 230 233 225
313 306 300 286 281 282 278 273 268 268 264 260 252 244 236 244 243 242 248 250 250 247 244 248 246 244 244 248 246 249 249 244 243 247 243 247 243 239 237 238 236 230 226
321 317 314 304 288 284 283 276 271 268 268 268 265 261 250 239 245 244 244 246 249 246 245 245 248 251 251 245 250 247 244 243 244 248 247 248 249 241 239 238 234 238 234
331 328 323 314 305 295 290 281 277 275 273 268 263 262 260 256 240 244 246 243 244 245 246 241 247 248 250 245 253 249 241 247 245 249 247 249 247 242 240 237 236 239 237
339 338 337 332 321 313 306 298 291 282 274 272 267 262 259 264 258 237 245 244 243 245 242 246 241 247 251 253 254 251 244 250 257 248 247 247 247 244 241 237 237 237 242
353 350 349 346 340 331 324 316 305 294 288 274 274 272 264 265 261 245 244 247 246 250 255 251 248 244 250 254 255 256 257 254 253 249 243 244 246 245 242 240 238 237 237
11 8 5 3 358 353 345 339 328 314 303 289 272 276 267 258 263 254 249 249 251 251 252 253 249 250 255 257 258 260 262 254 246 249 237 238 244 244 240 240 239 240 239
26 26 28 25 18 16 12 4 355 345 336 320 288 278 267 265 253 254 255 257 258 256 250 251 251 247 254 254 258 257 253 245 244 244 234 235 243 245 239 240 242 247 243
41 44 45 40 32 28 26 24 18 14 7 360 340 318 286 285 252 248 245 250 261 264 259 255 255 250 254 254 253 248 237 245 244 244 236 237 243 242 239 240 246 244 244
45 47 48 49 42 36 32 32 34 32 27 21 11 359 341 320 300 268 253 252 252 258 258 250 257 251 249 253 250 249 243 243 246 248 247 243 241 234 233 239 241 244 256
46 46 48 48 48 42 39 36 38 38 38 36 31 24 17 4 335 306 284 265 255 248 252 252 255 249 235 236 239 243 242 240 241 235 247 240 230 227 229 234 237 236 242
46 46 45 44 46 45 40 40 40 41 41 40 38 34 27 19 9 356 329 307 290 274 258 255 246 240 240 240 241 229 233 226 233 239 238 237 231 227 229 233 235 239 234
43 47 45 43 43 43 43 38 39 40 40 37 38 35 33 28 19 10 356 341 323 297 279 259 265 242 246 243 237 236 229 230 231 241 237 233 227 229 229 231 235 232 223
41 41 41 41 38 38 38 37 37 38 39 37 34 34 32 29 24 20 14 10 6 350 327 283 265 261 228 227 216 231 230 231 243 245 236 230 228 225 227 233 234 233 230
44 42 40 41 39 36 33 31 30 33 34 35 34 33 31 28 24 21 23 24 19 25 23 357 338 319 253 232 211 218 221 232 236 246 235 236 230 227 228 231 235 232 240
47 46 44 43 43 40 35 30 29 30 30 30 30 30 29 26 23 25 26 27 27 22 17 18 26 8 317 263 244 250 218 217 230 232 235 226 228 220 215 224 227 233 237